Flag for Honduras Weather past 2 weeks in San Pedro Sula, Honduras

Now
77 °F

Passing clouds.


Feels Like: 78 °F
Forecast: 77 / 91 °F
Wind: No wind

Location: La Mesa San Pedro Sula

Current Time: May 23, 2015 at 4:47:37 AM

Latest Report: May 23, 2015 at 3:00 AM


Visibility: N/A

Pressure: 29.98 "Hg

Humidity: 100%

Dew point: 77 °F

Location of San Pedro SulaLocation

Historic Weather in San Pedro Sula — Graph

°F

San Pedro Sula temperature yesterday

Maximum temperature yesterday: 93 °F (at 11:00 AM)
Minimum temperature yesterday: 75 °F (at 6:00 AM)
Average temperature yesterday: 84 °F

Past Weeks' High & Low Weather Summary

 TemperatureHumidityPressure
High95 °F (May 9, 1:00 PM)100% (May 8, 3:00 AM)30.15 "Hg (May 8, 3:00 AM)
Low72 °F (May 16, 5:00 AM)38% (May 18, 5:00 PM)29.80 "Hg (May 8, 2:00 PM)
Average84 °F82%29.91 "Hg
* Reported May 8 3:00 AM — May 23 3:00 AM, San Pedro Sula, Weather by CustomWeather, © 2015

Note: Actual official high and low records may vary slightly from our data, if they occured in-between our weather recording intervals... More about our weather records

Advertising

San Pedro Sula weather history for previous 24 hours

 ConditionsComfort  
Time TempWeatherWind HumidityBarometerVisibility
3:00 AM
Sat, May 23
77 °FPassing clouds.No wind100%29.98 "HgN/A
2:00 AM79 °FPassing clouds.No wind94%29.98 "HgN/A
12:00 AM81 °FPassing clouds.No wind89%30.01 "HgN/A
11:00 PM
Fri, May 22
81 °FPartly cloudy.No wind89%30.01 "HgN/A
10:00 PM82 °FThunderstorms. Partly cloudy.No wind89%30.01 "HgN/A
9:00 PM82 °FThunderstorms. Partly cloudy.7 mph89%29.98 "HgN/A
8:00 PM82 °FPartly cloudy.8 mph89%29.95 "HgN/A
7:00 PM82 °FPartly cloudy.10 mph89%29.95 "HgN/A
6:00 PM84 °FPartly sunny.14 mph84%29.95 "HgN/A
4:00 PM88 °FPartly sunny.18 mph70%29.89 "HgN/A
3:00 PM93 °FScattered clouds.20 mph56%29.89 "HgN/A
1:00 PM93 °FScattered clouds.16 mph63%29.92 "HgN/A
12:00 PM75 °FScattered clouds.9 mph61%29.95 "HgN/A
11:00 AM93 °FScattered clouds.7 mph59%29.95 "HgN/A
10:00 AM91 °FScattered clouds.3 mph63%29.98 "HgN/A
9:00 AM86 °FPartly sunny.No wind75%29.98 "HgN/A
7:00 AM77 °FPartly sunny.3 mph100%29.98 "HgN/A
6:00 AM75 °FThunderstorms. Broken clouds.7 mph100%29.95 "HgN/A
5:00 AM79 °FPassing clouds.No wind100%29.92 "HgN/A
Weather by CustomWeather, © 2015

See weather overviewHow to use our weather pages